Regional Weather Roundup
Issued by NWS

Home | Current Version | Previous Version | Text Only | Print | Product List | Glossary Off
Versions: 1 2 3 4 5 6 7 8 9 10 11 12 13 14 15 16 17 18 19 20 21 22 23 24 25 26 27 28 29 30 31 32 33 34 35 36 37 38 39 40 41 42 43 44 45 46 47 48 49 50

000
ASUS43 KDTX 300710
RWRMI
MICHIGAN HOURLY REGIONAL WEATHER ROUNDUP
NATIONAL WEATHER SERVICE DETROIT/PONTIAC MI
300 AM EDT SAT JUL 30 2016

NOTE: "FAIR" INDICATES FEW OR NO CLOUDS BELOW 12,000 FEET WITH NO
SIGNIFICANT WEATHER AND/OR OBSTRUCTION TO VISIBILITY.

MIZ047>049-052>055-059>063-066>070-074>076-081>083-300800-
SOUTHEAST LOWER MICHIGAN

CITY           SKY/WX    TMP DP  RH WIND       PRES   REMARKS
ADRIAN         CLOUDY    67  61  81 NE5       29.96S
ALMA           CLOUDY    64  60  86 NW6       30.01F
ANN ARBOR      CLOUDY    66  59  78 NE9       29.94F
BAD AXE        CLOUDY    67  58  73 NE8       30.02F
CARO           CLOUDY    67  58  74 NE3       29.99F
DETROIT CITY   CLOUDY    69  62  78 NE7       29.95F
DETROIT        LGT RAIN  68  61  78 N7        29.95F
FLINT          CLOUDY    70  58  65 NE7       29.98F
GROSSE ILE     LGT RAIN  69  63  81 NE8       29.93F
HILLSDALE      CLOUDY    64  61  88 CALM      29.96S
HOWELL         LGT RAIN  65  58  78 CALM      29.98S

CITY           SKY/WX    TMP DP  RH WIND       PRES   REMARKS
JACKSON        CLOUDY    63  61  93 N5        29.98S
LAMBERTVILLE   CLOUDY    69  60  74 NE3       29.94F
LANSING        CLOUDY    66  56  70 NE8       29.99F
LAPEER         CLOUDY    67  59  75 CALM      29.99F
MASON          CLOUDY    65  56  75 CALM      29.98F
MONROE         CLOUDY    66  62  85 N6        29.93F
MT. CLEMENS    CLOUDY    68  63  83 N2        29.94F
PONTIAC        LGT RAIN  67  61  81 NE6       29.96F
PORT HOPE        N/A     71  59  65 NE18      30.01F
PORT HURON     CLOUDY    68  63  83 CALM      29.97F
TRI CITIES     CLOUDY    69  60  73 NE10      30.01F
MIDLAND        CLOUDY    64  57  77 N3        30.01S
TROY           LGT RAIN  71  61  72 NE7       29.98F
SAGINAW HB     CLOUDY    66  59  77 N5        30.00S
$$
MIZ043>046-050>051-056>058-064>065-071>073-077>080-300800-
SOUTHWEST LOWER MICHIGAN

CITY           SKY/WX    TMP DP  RH WIND       PRES   REMARKS
BATTLE CREEK   LGT RAIN  63  60  90 E6        29.98S
BENTON HARBOR  CLOUDY    67  62  84 E6        29.93F
BIG RAPIDS     CLOUDY    63  57  83 CALM      30.03S
COLDWATER      CLOUDY    66  64  95 NE7       29.96S
FREMONT        MOCLDY    65  58  78 E9        30.00F
HOLLAND        CLOUDY    65  58  78 E10       29.98S
GRAND RAPIDS   CLOUDY    63  57  81 NE15      29.99F
IONIA          HVY RAIN  61  59  91 N5        30.00S
KALAMAZOO      CLOUDY    66  59  78 NE6       29.97S
LUDINGTON      MOCLDY    63  56  79 E5        30.01F
MARSHALL       CLOUDY    65  60  85 CALM      29.97S
MOUNT PLEASANT CLOUDY    63  55  74 N5        30.01F
MUSKEGON       LGT RAIN  66  60  81 E7        29.99S
SOUTH HAVEN    CLOUDY    66  62  87 E6        29.95S
$$
MIZ016>042-300800-
NORTHERN LOWER MICHIGAN

CITY           SKY/WX    TMP DP  RH WIND       PRES   REMARKS
ALPENA         CLOUDY    54  50  86 CALM      30.07S
BEAVER ISLAND  CLEAR     55  55 100 CALM      30.07S FOG
BELLAIRE       PTCLDY    53  51  94 CALM      30.06S
CADILLAC       PTCLDY    58  53  83 E3        30.05S
CHARLEVOIX     CLEAR     57  53  84 CALM      30.09S
FRANKFORT      PTCLDY    65  53  65 E5        30.03S
GAYLORD        CLOUDY    58  48  69 NE3       30.07F
GRAYLING       PTCLDY    51  48  88 CALM      30.07S
HARBOR SPRINGS CLEAR     56  53  87 CALM      30.07S
HOUGHTON LAKE  PTCLDY    55  52  89 NE3       30.05F
MANISTEE       CLEAR     61  55  81 E6        30.02S
OSCODA         MOCLDY    66  59  77 NE9       30.03F
PELLSTON       CLEAR     50  47  89 CALM      30.07F
ROGERS CITY    PTCLDY    53  49  87 CALM      30.08F
TRAVERSE CITY  CLEAR     62  51  67 CALM      30.03F
$$
MIZ007>008-015-300800-
EASTERN UPPER MICHIGAN

CITY           SKY/WX    TMP DP  RH WIND       PRES   REMARKS
KINROSS        CLEAR     58  55  90 CALM      30.08S
MACKINAC ISLAN CLEAR     58  58 100 NE5       30.07S
NEWBERRY       CLEAR     52  52 100 CALM      30.08S
S. S. MARIE    CLEAR     57  54  89 S3        30.07S
MUNISING         N/A     53  52  96 S7        30.07S
$$
MIZ004>006-011>014-085-300800-
CENTRAL UPPER MICHIGAN

CITY           SKY/WX    TMP DP  RH WIND       PRES   REMARKS
MANISTIQUE     CLEAR     54  52  95 N5        30.07R
ESCANABA       CLEAR     54  50  87 N3        30.06R
MENOMINEE      CLEAR    N/A N/A N/A NE7       30.04F
SAWYER-GWINN   PTCLDY    52  50  93 NW5       30.09S
$$
MIZ001>003-009>011-084-300800-
WESTERN UPPER MICHIGAN

CITY           SKY/WX    TMP DP  RH WIND       PRES   REMARKS
IRON MOUNTAIN  PTCLDY    53  49  86 NW5       30.07S
HOUGHTON       CLEAR     57  55  93 E5        30.08S
COPPER HARBOR    N/A     57  54  89 SW7       30.07F
IRONWOOD       MOCLDY    57  54  88 E6        30.06S
$$

ABBREVIATIONS USED IN REMARKS
   TC - TEMPERATURE IN CELSIUS
  WCI - WIND CHILL INDEX
   HX - HEAT INDEX
  VSB - VISIBILITY





USA.gov is the U.S. government's official web portal to all federal, state and local government web resources and services.